Wind_Speed
39 39 39 40 40 41 42 43 43 43 43 43 43 42 42 42 42 42 42 42 42 41 41 41 41 41 41 41 41 41 41 41 41 41 41 41 41 41 41 42 41 41 41
39 40 41 41 42 42 43 44 45 45 45 45 44 43 43 42 42 43 43 44 43 42 42 43 43 42 42 42 42 42 42 42 42 42 42 42 42 42 43 43 43 43 42
39 40 41 42 42 43 44 45 45 46 45 45 45 44 44 44 43 43 43 44 44 43 44 44 44 44 44 44 44 44 43 43 43 43 43 43 42 42 43 43 43 43 43
40 40 41 42 42 42 43 44 44 45 45 45 45 45 45 45 45 45 44 44 44 44 45 45 46 46 46 46 46 46 45 45 45 44 44 44 44 43 42 43 43 43 44
40 40 41 41 41 42 43 43 43 44 45 45 46 46 46 45 45 45 45 44 45 45 45 46 46 47 47 47 48 48 48 47 47 47 46 45 44 44 44 44 44 45 45
39 40 40 41 41 41 42 42 43 43 44 45 45 45 45 45 45 45 44 44 45 46 46 47 47 47 47 48 48 49 49 49 49 48 48 47 46 46 46 46 46 46 47
38 38 38 39 40 41 41 42 43 43 43 44 44 44 44 45 45 46 46 46 46 47 47 48 48 48 48 49 49 49 49 49 49 49 49 49 48 49 49 48 48 48 49
36 37 38 38 40 40 41 42 42 43 43 44 44 44 44 45 46 46 46 46 46 46 48 48 49 49 49 49 49 50 50 49 49 50 50 50 50 50 50 51 50 50 50
35 36 37 39 40 40 41 41 41 42 43 44 44 45 45 45 46 46 46 46 46 46 47 48 49 49 50 50 50 50 50 50 51 51 51 51 52 52 52 53 53 51 51
35 36 37 38 39 40 40 40 41 41 42 42 43 44 44 44 45 45 45 45 45 46 46 47 48 49 50 50 50 49 49 50 50 51 51 52 52 53 52 53 53 53 53
36 36 37 38 38 39 39 40 40 41 42 42 42 42 43 43 44 45 45 45 45 46 46 48 47 47 48 49 49 49 49 49 49 50 51 52 52 52 52 53 53 53 53
36 36 36 36 37 37 38 38 39 40 41 42 42 43 43 43 44 45 45 44 45 46 46 47 48 47 48 49 50 50 50 50 50 50 50 52 53 53 53 53 53 53 53
35 36 35 36 36 36 37 38 39 40 41 42 43 43 43 44 45 45 45 45 45 45 45 47 48 48 48 49 49 50 51 52 52 51 51 52 53 53 53 53 53 53 53
34 34 35 35 35 36 37 38 39 40 41 42 42 43 44 44 44 45 45 45 45 44 44 45 47 48 48 49 49 50 51 51 52 51 51 51 52 52 52 52 51 51 51
33 33 34 34 34 35 36 38 39 40 40 41 42 42 43 43 43 44 45 46 46 45 44 44 44 46 47 48 49 50 51 51 51 50 51 51 50 49 49 50 50 50 50
33 33 33 34 35 35 36 36 37 38 38 39 40 41 42 43 43 43 44 45 46 46 46 46 45 46 46 47 48 49 50 50 50 49 49 50 49 49 48 47 48 49 50
34 34 34 34 34 34 35 35 35 36 37 38 39 40 41 42 42 42 42 43 44 44 45 46 46 46 46 46 47 47 48 48 48 47 47 47 48 48 47 47 47 47 48
35 34 34 34 34 34 34 34 35 35 36 36 37 38 39 40 40 40 40 40 41 42 43 44 45 45 46 46 45 45 45 44 45 45 45 46 47 47 47 47 47 47 47
34 34 34 34 34 34 34 35 35 35 35 35 36 36 37 37 38 38 38 39 39 40 41 42 42 43 43 44 44 44 44 44 44 44 45 44 45 45 46 46 46 46 46
33 34 34 34 34 34 34 34 34 35 35 35 35 35 35 36 36 37 37 37 38 38 39 39 40 40 40 40 41 41 42 43 43 43 43 44 44 45 45 46 46 47 47
33 34 34 34 34 34 34 34 34 34 34 34 34 34 34 34 34 35 35 35 36 37 37 37 38 38 38 39 39 40 40 41 41 41 42 43 44 44 44 44 45 45 45
32 33 33 34 33 33 33 33 33 33 33 33 33 33 33 34 34 34 34 35 35 35 35 35 35 36 36 37 37 38 39 39 39 40 40 41 41 41 41 41 42 43 43
31 32 31 31 32 32 33 32 32 32 33 33 33 33 33 33 33 33 33 33 33 33 33 34 35 35 35 36 36 37 37 38 38 38 38 38 39 39 39 39 39 39 39
30 30 30 30 30 31 32 32 32 32 32 32 32 32 32 32 32 32 31 32 32 32 33 33 34 34 35 36 35 35 36 36 36 36 36 35 35 36 36 37 36 36 36
29 29 29 29 30 30 31 31 31 31 31 31 30 31 31 31 31 31 31 31 31 31 31 31 32 32 33 34 34 34 34 33 33 33 33 33 33 33 34 34 34 34 34
28 28 28 28 29 29 29 29 30 30 30 30 30 29 29 29 29 29 30 30 30 30 30 30 31 31 31 31 31 31 31 30 30 30 30 30 30 31 31 31 31 30 31
Wind_Direction
256 257 257 257 257 256 256 256 256 257 257 257 258 260 261 262 264 263 264 264 265 267 267 265 265 265 267 268 267 266 267 267 267 267 267 266 268 268 267 267 266 266 266
257 257 257 258 258 258 258 257 257 257 258 257 259 261 261 261 262 263 264 264 264 266 267 265 265 266 268 268 268 268 267 267 268 269 267 267 268 267 267 266 266 266 266
258 258 258 258 259 259 259 259 258 257 257 257 258 259 261 261 262 263 264 265 264 265 265 264 265 265 267 268 268 268 268 268 267 268 269 268 268 266 266 266 266 266 267
260 259 259 259 259 259 259 258 258 258 257 258 259 259 260 262 263 264 265 266 264 265 265 265 265 265 266 267 268 268 268 268 268 268 270 269 268 267 266 266 266 266 267
262 261 260 259 259 258 258 258 258 258 258 258 259 260 260 262 263 264 264 265 264 264 265 265 265 265 265 266 267 267 266 267 267 267 268 268 268 267 266 266 266 267 268
264 262 260 259 259 258 259 258 258 259 258 258 259 259 261 262 263 263 264 264 265 265 265 264 265 266 265 265 265 266 266 266 266 266 267 266 267 267 267 267 267 267 268
264 262 260 259 259 259 259 259 259 259 259 259 259 260 262 262 262 263 263 264 265 265 265 265 265 265 265 265 265 266 266 266 267 267 266 266 265 266 267 268 268 268 268
263 262 261 260 260 260 260 260 260 259 260 260 259 260 261 262 263 263 264 264 265 266 266 265 265 265 265 266 266 267 267 267 267 268 267 266 266 267 268 268 268 269 269
263 262 262 262 261 260 259 259 259 259 260 261 260 261 262 263 263 264 265 265 265 265 266 265 265 265 265 265 266 267 267 268 268 268 268 267 266 267 268 269 269 270 269
265 264 262 262 261 259 259 259 260 260 260 261 262 261 261 262 263 264 265 266 268 267 265 266 266 266 265 265 265 267 268 268 268 269 268 268 268 268 268 269 270 270 270
266 265 264 263 262 261 260 260 260 260 261 261 263 262 262 262 263 264 265 267 268 267 267 266 266 265 265 265 266 267 267 269 269 269 269 268 269 269 269 269 270 270 270
266 266 265 264 263 262 262 262 262 262 263 263 264 264 264 264 264 265 266 267 268 267 267 266 266 266 266 267 268 268 268 269 269 270 270 269 268 268 269 270 270 269 269
267 267 266 264 263 262 262 262 263 265 265 265 265 266 267 267 267 267 268 268 269 269 268 266 265 266 267 267 268 268 268 270 270 270 271 271 269 268 269 269 269 269 269
267 267 266 265 264 263 264 264 265 266 267 267 267 268 268 269 270 269 269 269 270 270 269 267 266 266 267 267 268 268 269 271 271 271 272 272 270 269 268 269 270 270 270
268 267 266 265 265 265 265 266 266 267 268 269 268 269 270 271 272 270 270 270 270 270 269 269 268 268 269 269 269 269 270 271 271 272 272 271 271 270 269 269 269 270 270
268 268 268 266 265 265 266 267 267 268 268 269 270 271 271 272 273 273 272 271 271 270 269 269 269 269 270 271 270 270 271 271 272 272 272 271 271 270 270 270 270 270 270
269 268 269 269 268 267 267 267 268 269 270 271 272 273 273 273 274 275 275 273 272 272 271 271 271 271 271 272 273 272 272 272 272 271 272 271 270 270 271 270 270 270 270
269 269 269 269 269 268 268 268 269 270 271 272 273 273 273 273 274 275 276 275 274 273 273 272 273 273 273 273 273 273 273 273 272 272 272 272 271 271 271 271 271 270 270
269 269 269 270 270 270 269 269 270 271 272 273 273 273 274 275 276 276 276 277 276 275 275 275 275 274 274 273 273 274 275 274 273 272 272 272 272 271 272 272 271 271 271
270 269 270 270 270 270 270 270 271 272 273 273 273 273 274 275 276 277 278 278 278 277 277 277 277 276 274 274 274 275 277 276 275 273 273 273 273 273 273 274 273 272 272
271 270 270 271 271 271 270 271 272 272 272 273 273 274 275 276 277 278 278 279 279 279 279 279 279 278 277 276 277 277 277 277 276 275 274 274 274 275 275 274 274 274 273
272 271 271 271 270 271 271 272 272 272 272 272 274 275 276 276 276 278 279 280 281 281 281 281 280 280 279 278 278 278 277 277 276 276 276 275 275 275 275 276 276 275 274
273 272 272 270 270 270 271 272 272 272 272 273 273 274 275 276 277 278 279 280 281 283 283 282 282 281 280 280 280 279 277 277 277 276 275 275 275 275 276 276 276 276 275
274 273 273 271 270 270 271 271 271 272 273 273 274 274 276 277 278 279 279 281 283 284 285 285 283 283 282 281 280 278 278 278 277 276 275 275 275 275 276 276 276 277 276
274 274 274 273 273 272 271 271 271 272 272 272 273 275 277 278 278 279 280 282 284 286 286 286 285 284 284 282 281 280 279 278 277 276 275 274 275 276 276 276 276 277 277
274 274 274 274 273 272 272 272 273 273 273 273 274 275 277 278 279 280 281 283 284 285 287 287 287 286 285 283 282 281 280 279 278 278 277 276 276 277 277 277 277 278 277
Height
5732 5734 5736 5737 5739 5741 5743 5745 5747 5749 5750 5752 5753 5754 5755 5756 5757 5758 5759 5759 5760 5761 5761 5762 5762 5763 5764 5765 5765 5766 5766 5767 5768 5768 5769 5770 5770 5770 5771 5771 5772 5773 5774
5723 5725 5726 5728 5730 5732 5734 5735 5737 5738 5739 5741 5742 5743 5744 5746 5747 5748 5748 5749 5750 5751 5751 5752 5753 5753 5754 5755 5755 5756 5756 5757 5757 5757 5758 5759 5761 5761 5761 5761 5762 5763 5764
5713 5715 5716 5718 5720 5721 5723 5724 5726 5727 5729 5730 5731 5732 5734 5735 5736 5737 5738 5738 5739 5740 5740 5741 5742 5743 5744 5744 5745 5745 5746 5747 5747 5747 5747 5748 5750 5751 5751 5751 5752 5753 5753
5703 5705 5706 5708 5710 5711 5712 5714 5715 5716 5718 5719 5720 5722 5723 5725 5726 5726 5727 5727 5728 5728 5729 5730 5731 5731 5732 5733 5734 5734 5735 5735 5736 5736 5736 5737 5738 5739 5740 5741 5741 5742 5743
5693 5695 5696 5698 5699 5700 5702 5703 5704 5706 5707 5708 5710 5711 5712 5713 5714 5715 5716 5716 5716 5717 5718 5718 5719 5720 5721 5722 5722 5723 5724 5724 5725 5725 5725 5725 5726 5727 5728 5730 5731 5731 5731
5684 5685 5686 5687 5689 5690 5691 5693 5694 5695 5696 5698 5699 5700 5701 5702 5702 5703 5704 5705 5705 5706 5706 5707 5708 5708 5709 5710 5710 5711 5711 5712 5713 5713 5713 5714 5714 5715 5716 5718 5719 5719 5720
5674 5675 5676 5677 5679 5680 5681 5682 5683 5685 5686 5687 5688 5689 5689 5690 5691 5692 5692 5693 5694 5695 5695 5695 5696 5697 5697 5698 5698 5698 5699 5700 5700 5701 5701 5702 5702 5703 5703 5705 5706 5707 5708
5664 5665 5667 5668 5669 5670 5671 5672 5673 5674 5675 5676 5677 5677 5678 5679 5679 5680 5680 5681 5682 5682 5683 5683 5684 5684 5685 5685 5686 5686 5686 5687 5688 5688 5689 5689 5690 5690 5691 5692 5692 5694 5695
5655 5656 5657 5658 5658 5659 5660 5661 5662 5663 5664 5665 5665 5666 5667 5667 5668 5668 5669 5669 5669 5670 5670 5670 5671 5671 5672 5672 5673 5673 5674 5674 5675 5675 5675 5676 5677 5677 5678 5678 5679 5680 5681
5646 5647 5647 5648 5648 5649 5650 5651 5652 5653 5653 5654 5654 5655 5655 5656 5656 5656 5657 5657 5657 5658 5658 5658 5658 5658 5659 5659 5660 5661 5661 5661 5662 5662 5663 5663 5664 5664 5664 5664 5665 5665 5667
5636 5637 5637 5638 5638 5639 5640 5640 5641 5642 5643 5643 5643 5644 5644 5644 5645 5645 5646 5646 5646 5645 5646 5646 5646 5646 5646 5647 5647 5648 5648 5648 5649 5649 5649 5650 5650 5651 5651 5651 5651 5652 5652
5627 5627 5628 5628 5628 5629 5630 5630 5631 5631 5632 5632 5632 5633 5633 5633 5634 5634 5634 5634 5634 5634 5633 5633 5634 5634 5634 5634 5634 5635 5635 5636 5636 5636 5636 5636 5636 5637 5637 5637 5637 5638 5638
5617 5618 5618 5618 5619 5619 5620 5620 5621 5621 5621 5621 5621 5622 5622 5622 5623 5623 5622 5622 5622 5622 5621 5621 5621 5621 5621 5621 5621 5622 5622 5622 5622 5622 5622 5622 5622 5622 5622 5622 5623 5623 5624
5608 5608 5608 5609 5609 5610 5610 5611 5611 5611 5611 5611 5611 5611 5611 5611 5611 5611 5611 5610 5610 5610 5609 5609 5608 5608 5608 5608 5608 5608 5609 5609 5609 5609 5609 5608 5608 5608 5608 5608 5608 5608 5609
5599 5599 5599 5599 5600 5600 5600 5600 5600 5600 5600 5600 5600 5600 5600 5600 5599 5599 5599 5598 5598 5598 5597 5597 5596 5596 5595 5595 5595 5595 5595 5596 5595 5595 5595 5594 5594 5594 5594 5594 5594 5594 5594
5590 5590 5590 5590 5590 5590 5590 5590 5590 5590 5589 5589 5589 5589 5589 5588 5587 5587 5586 5586 5586 5585 5585 5585 5584 5583 5583 5582 5582 5582 5582 5582 5582 5582 5581 5581 5580 5580 5579 5580 5580 5580 5580
5580 5580 5581 5581 5581 5580 5580 5580 5580 5579 5579 5579 5578 5578 5577 5577 5576 5575 5574 5573 5573 5573 5572 5572 5571 5571 5570 5569 5569 5568 5568 5568 5568 5568 5567 5567 5567 5566 5566 5566 5566 5566 5566
5571 5571 5571 5571 5571 5571 5570 5570 5570 5569 5569 5568 5568 5567 5566 5566 5565 5564 5563 5562 5562 5561 5560 5560 5559 5559 5558 5557 5556 5555 5555 5554 5554 5554 5554 5554 5554 5553 5553 5553 5553 5552 5552
5562 5561 5561 5561 5561 5561 5560 5560 5560 5559 5559 5558 5557 5557 5556 5555 5554 5553 5552 5551 5550 5550 5549 5548 5547 5546 5546 5544 5543 5543 5542 5542 5542 5541 5541 5541 5541 5540 5540 5540 5540 5540 5539
5552 5552 5551 5551 5551 5551 5550 5550 5550 5549 5549 5548 5547 5546 5545 5545 5544 5543 5541 5540 5540 5539 5538 5537 5536 5534 5534 5532 5532 5531 5530 5530 5530 5529 5529 5528 5528 5527 5526 5526 5526 5526 5526
5542 5542 5542 5541 5541 5541 5541 5540 5540 5539 5538 5538 5537 5536 5535 5534 5533 5532 5531 5530 5529 5528 5527 5526 5525 5523 5522 5521 5520 5519 5518 5518 5517 5517 5516 5516 5515 5514 5514 5513 5513 5512 5512
5533 5532 5532 5531 5531 5531 5530 5530 5530 5529 5528 5528 5527 5526 5525 5524 5523 5522 5521 5520 5519 5518 5517 5515 5514 5512 5511 5510 5509 5507 5506 5506 5505 5505 5505 5504 5503 5502 5501 5501 5500 5499 5499
5523 5523 5522 5522 5521 5521 5520 5520 5520 5519 5518 5518 5517 5516 5515 5515 5514 5513 5512 5510 5509 5508 5507 5505 5504 5502 5501 5499 5498 5497 5495 5494 5494 5493 5493 5492 5491 5491 5490 5489 5488 5487 5487
5514 5513 5513 5512 5512 5511 5511 5510 5509 5509 5508 5508 5507 5507 5506 5505 5504 5503 5502 5501 5500 5498 5497 5495 5494 5492 5491 5489 5487 5486 5485 5484 5483 5482 5481 5481 5480 5480 5479 5478 5477 5477 5476
5505 5505 5504 5503 5503 5502 5501 5500 5500 5499 5499 5498 5498 5497 5496 5496 5495 5494 5493 5492 5490 5489 5487 5486 5484 5482 5481 5479 5477 5476 5475 5474 5473 5472 5471 5471 5470 5469 5468 5467 5467 5466 5465
5497 5496 5495 5494 5493 5493 5492 5491 5490 5490 5490 5489 5489 5488 5487 5486 5485 5485 5484 5482 5481 5480 5478 5476 5475 5473 5471 5469 5468 5466 5465 5464 5463 5463 5462 5461 5460 5459 5458 5458 5457 5456 5455